SCP
0 0 0 0 0 0 0 0 0 0 0 0 0 0 0 0 0 0 0 0 1 1 1 2 2 2 2 2 2 2 2 2 2 2 1 1 1 1 1 1 1 1 1 1 1 1 1 1 1
0 0 0 0 0 0 0 0 0 0 0 0 0 0 0 0 0 0 0 0 0 1 2 2 2 2 2 3 3 2 2 2 2 2 1 1 1 1 1 1 1 1 1 1 1 1 1 1 1
0 0 0 0 0 0 0 0 0 0 0 0 0 0 0 0 0 0 0 0 0 1 2 3 3 2 2 3 3 2 2 2 1 2 1 1 1 1 1 1 1 1 1 1 1 1 1 1 1
1 1 0 0 0 0 0 0 0 0 0 0 0 0 0 0 0 0 0 0 0 1 2 3 3 3 3 3 3 2 2 2 1 1 2 1 1 1 1 1 1 1 1 1 1 1 1 1 1
1 1 0 0 0 0 0 0 0 0 0 0 0 0 0 0 0 0 0 0 1 1 2 3 3 3 3 3 3 2 2 2 1 1 1 2 1 1 1 1 1 1 1 1 1 1 1 1 1
1 1 0 0 0 0 0 0 0 0 0 0 0 0 0 0 0 0 0 0 1 1 2 3 3 3 3 3 3 3 2 2 1 1 1 2 2 1 1 2 1 1 1 1 1 1 1 1 1
1 0 0 0 0 0 0 0 0 0 0 0 0 0 0 0 0 0 0 0 1 1 2 2 2 2 2 3 3 3 2 2 2 2 2 2 2 1 1 2 1 1 1 1 1 1 1 1 1
0 0 0 0 0 0 0 0 0 0 0 0 0 0 0 0 0 0 0 1 1 1 1 2 2 2 2 2 3 2 2 2 2 2 2 2 2 1 1 1 1 1 1 1 1 1 1 1 1
0 0 0 0 0 0 0 0 0 0 0 0 0 0 0 0 0 0 0 1 1 1 1 1 1 1 2 2 2 2 2 2 2 2 2 2 2 1 1 1 1 1 1 1 1 1 1 1 1
0 0 0 0 0 0 0 0 0 0 0 0 0 0 0 0 0 0 0 0 1 1 1 1 1 1 2 2 3 2 2 2 2 2 2 2 2 2 1 1 1 1 1 1 1 1 2 2 1
0 0 0 0 0 0 0 0 0 0 0 0 0 0 0 0 0 0 0 0 0 0 0 0 1 1 2 2 3 3 2 2 2 2 2 2 2 2 1 1 1 1 1 1 1 1 2 2 2
0 0 0 0 0 0 0 0 0 0 0 0 0 0 0 0 0 0 0 0 0 0 0 0 1 1 2 2 2 3 3 2 2 2 2 2 2 2 1 1 1 1 1 1 1 1 2 2 2
0 0 0 0 0 0 0 0 0 0 0 0 0 0 0 0 0 0 0 0 1 0 0 0 1 1 2 2 2 3 3 2 2 2 2 2 2 2 1 1 1 1 1 1 1 1 1 1 1
0 0 0 0 0 0 0 0 0 0 0 0 0 0 0 0 0 0 0 1 1 1 0 1 1 1 2 3 3 3 3 3 2 2 2 2 2 2 1 1 1 1 1 1 1 1 1 1 1
0 0 0 0 0 0 0 0 0 0 0 0 0 0 0 0 0 0 0 1 1 1 1 1 1 1 2 3 3 3 3 2 2 2 2 2 2 2 1 1 1 1 1 1 1 1 1 1 1
0 0 0 0 0 0 0 0 0 0 0 0 0 0 0 0 0 0 0 1 2 1 1 1 1 1 1 2 3 3 3 2 2 2 2 2 2 2 1 1 1 1 1 1 1 1 1 1 1
0 0 0 0 0 0 0 0 0 0 0 0 0 0 0 0 0 0 1 2 2 1 1 1 1 1 1 2 3 3 2 2 2 2 2 2 2 2 1 1 1 1 1 1 1 1 1 0 1
0 0 0 0 0 0 0 0 0 0 0 0 0 0 0 0 0 0 1 2 2 1 1 1 1 1 1 1 2 2 2 2 2 2 2 2 2 1 1 1 1 1 1 1 1 1 1 0 0
0 0 0 0 0 0 0 0 0 0 0 0 0 0 0 0 0 0 1 2 2 1 1 1 1 1 1 1 1 2 1 1 2 2 2 1 1 1 1 1 1 0 0 1 1 1 1 1 1
0 0 0 0 0 0 0 0 0 0 0 0 0 0 0 0 0 0 1 2 1 1 1 1 1 1 1 1 1 1 1 1 2 2 1 1 1 0 1 1 1 0 0 0 1 1 1 1 1
0 0 0 0 0 0 0 0 0 0 0 0 0 0 0 0 0 0 1 1 1 1 1 2 2 1 1 1 1 1 1 2 2 2 1 1 1 0 0 1 1 0 0 0 0 1 1 1 1
0 0 0 0 0 0 0 0 0 0 0 0 0 0 0 0 0 0 0 0 1 1 1 1 1 2 2 1 1 1 1 1 2 2 2 1 1 0 0 0 0 0 0 0 0 0 1 1 1
0 0 0 0 0 0 0 0 0 0 0 0 0 0 0 0 0 0 0 0 0 0 1 1 1 1 2 1 1 1 1 1 2 2 2 1 1 1 0 0 0 0 0 0 0 0 1 1 1
0 0 0 0 0 0 0 0 0 0 0 0 0 0 0 0 0 0 0 0 0 0 0 0 0 1 1 1 1 1 1 1 2 2 2 1 1 1 0 0 0 0 0 0 0 0 0 1 1
0 0 0 0 0 0 0 0 0 0 0 0 0 0 0 0 0 0 1 1 0 0 0 0 0 0 0 1 1 1 1 1 1 2 2 2 1 1 0 0 0 0 0 0 0 0 0 0 0
0 0 0 0 0 0 0 0 0 0 0 0 0 0 0 0 0 1 1 1 0 0 0 0 0 0 0 1 1 1 1 1 1 1 2 2 1 1 0 0 0 0 0 0 0 0 0 0 0
0 0 0 0 0 0 0 0 0 0 0 0 0 0 0 0 0 1 1 1 0 0 0 0 0 0 0 0 1 1 1 1 1 1 1 1 1 1 0 0 0 0 0 0 0 0 0 0 0
0 0 0 0 0 0 0 0 0 0 0 0 0 0 0 0 0 1 0 0 0 0 0 0 0 0 0 0 1 1 1 1 1 1 1 1 1 1 0 0 0 0 0 0 0 0 0 0 0
0 0 0 0 0 0 0 0 0 0 0 0 0 0 0 0 0 0 0 0 0 0 0 0 0 0 0 0 1 1 1 1 1 1 1 1 1 1 1 0 0 0 0 0 0 0 0 0 0
0 0 0 0 0 0 0 0 0 0 0 0 0 0 0 0 0 0 0 0 0 0 0 0 0 0 0 0 0 1 1 1 1 1 1 1 1 1 1 0 0 0 0 0 0 0 0 0 0
Wind_Speed
7 9 8 3 3 5 7 6 3 2 2 4 4 3 4 4 4 5 4 4 5 7 10 9 9 8 7 7 7 6 6 5 6 6 6 6 6 6 5 6 6 6 5 5 6 6 6 6 6
8 8 5 3 4 6 7 7 3 2 5 4 1 2 2 1 5 7 4 4 5 7 9 9 9 8 7 7 6 6 6 5 5 5 6 6 6 6 6 6 6 5 5 5 5 5 5 5 6
11 8 4 4 6 6 2 2 4 4 3 1 1 1 2 2 4 4 5 4 4 5 7 10 10 8 7 6 6 6 6 5 5 5 5 5 5 5 5 6 6 5 5 5 5 5 5 5 5
5 3 4 6 11 8 4 1 4 1 1 1 1 1 2 4 4 4 4 3 3 4 6 10 11 9 7 6 6 6 6 6 5 5 5 5 5 5 5 5 5 5 5 5 5 5 5 5 5
4 4 6 8 12 9 4 2 2 2 2 2 2 2 1 3 5 4 3 2 2 4 5 8 10 9 8 7 6 6 6 6 6 5 5 5 5 5 5 5 5 5 5 5 5 5 5 5 5
4 4 6 9 11 8 3 1 2 4 3 1 2 3 1 3 5 4 3 1 2 3 4 6 9 9 8 7 7 6 6 6 6 6 6 6 6 6 6 6 6 6 6 5 5 5 5 5 5
4 5 8 10 7 4 1 1 2 3 3 2 3 3 2 4 5 4 3 2 2 3 3 4 6 6 7 7 7 6 6 7 7 7 7 6 6 7 7 6 7 7 7 6 6 6 6 6 6
4 4 8 8 8 5 0 1 2 4 4 3 3 3 1 3 3 3 3 2 2 1 2 3 4 5 5 6 7 7 6 7 7 7 7 7 7 7 7 7 7 8 8 7 7 7 7 7 7
4 5 7 6 5 2 2 1 2 2 4 4 3 3 2 1 1 1 1 0 1 0 1 2 3 3 4 5 6 7 6 6 6 6 7 7 5 5 6 8 8 9 9 8 8 8 7 6 6
5 6 7 5 4 4 3 4 4 4 6 6 5 3 1 1 0 2 2 2 2 2 2 2 2 2 2 3 4 4 5 5 5 4 5 5 4 4 5 6 9 9 9 8 8 8 7 5 3
6 7 6 6 5 5 5 6 6 7 7 7 4 2 1 2 3 3 3 2 2 2 2 2 2 2 2 2 2 2 2 3 5 5 5 4 4 3 3 2 4 5 6 5 5 6 4 4 4
8 8 8 6 4 5 6 7 7 9 8 6 5 3 3 4 4 3 3 2 1 2 2 2 2 2 2 2 2 2 2 2 3 4 5 4 3 3 3 3 3 3 3 4 4 3 5 5 5
12 9 8 7 5 6 8 9 9 11 10 7 6 4 4 5 5 3 2 2 1 1 2 2 3 3 3 2 2 2 3 3 3 3 4 4 3 3 3 3 3 3 3 4 4 4 5 5 5
6 7 8 9 9 7 9 10 9 10 8 7 6 6 6 6 5 4 3 2 2 2 2 2 2 2 3 3 2 2 2 3 3 2 3 4 3 3 3 3 3 3 3 4 4 5 4 4 4
7 8 9 9 9 7 6 10 11 11 7 7 7 7 6 6 4 4 3 2 2 2 2 2 3 2 2 3 3 2 2 2 2 3 3 3 3 3 3 3 3 3 3 4 3 4 3 3 4
6 7 8 7 8 6 4 10 7 5 5 7 7 6 5 5 5 4 2 2 1 1 1 2 1 2 2 2 2 2 2 2 2 3 3 4 4 4 4 3 4 3 3 3 3 3 3 3 3
7 7 8 6 6 6 7 9 6 4 5 6 6 5 5 4 4 3 2 2 1 1 1 2 2 2 2 2 2 2 2 2 2 2 3 4 4 4 4 3 3 3 3 3 3 3 3 4 4
6 7 8 7 5 5 8 10 9 6 6 6 6 5 5 4 3 2 2 2 1 1 1 1 2 2 2 1 1 1 1 2 2 2 3 4 4 4 3 3 3 3 3 3 3 4 4 4 4
8 8 9 7 3 4 8 11 11 8 7 6 5 5 5 4 3 3 2 2 2 1 1 1 2 2 2 1 1 2 2 2 2 2 3 4 4 4 4 3 3 3 3 4 4 4 5 4 3
11 11 11 7 4 4 8 12 12 10 8 7 6 4 4 4 4 3 3 2 2 1 1 1 1 2 2 2 2 2 2 2 2 2 2 3 4 4 4 4 4 4 4 5 5 4 4 4 4
11 11 10 8 7 7 8 11 10 8 7 5 4 4 3 3 3 3 2 2 1 0 0 1 1 1 2 3 2 1 1 1 1 2 2 2 3 4 4 4 4 4 4 5 5 5 6 5 4
10 7 8 7 5 5 3 7 5 5 5 6 6 5 4 4 3 2 2 2 1 1 1 1 1 1 1 2 2 3 2 2 2 2 2 2 3 3 3 4 4 4 4 5 5 5 5 5 5
5 2 5 7 6 7 6 7 8 6 6 7 6 5 4 4 4 3 2 2 2 2 1 1 1 1 1 2 3 3 3 3 2 1 3 3 3 3 4 3 3 4 4 5 5 5 5 5 5
2 2 4 5 3 7 9 8 7 4 6 6 6 5 4 4 3 3 3 3 2 2 1 1 2 2 1 1 1 2 3 3 2 3 3 3 2 2 3 3 3 4 4 4 5 5 6 6 6
4 3 2 3 5 8 6 7 7 3 2 4 6 5 4 3 3 3 3 2 1 1 1 1 2 2 2 1 2 2 2 2 3 3 3 3 2 2 3 3 3 4 4 4 4 5 6 6 7
8 7 5 5 4 3 3 7 4 3 3 4 5 6 5 4 3 3 2 2 1 0 0 1 2 2 2 2 2 2 2 2 2 2 2 3 3 3 3 3 4 5 5 5 5 5 6 6 6
6 8 5 3 4 4 6 5 2 2 4 5 5 5 5 4 3 2 2 1 1 0 0 1 2 2 2 2 2 2 2 2 2 3 3 3 3 3 3 4 4 5 5 5 5 5 6 6 6
5 4 4 5 4 6 6 7 5 6 6 6 6 5 4 4 3 2 2 2 1 1 1 1 2 2 2 2 2 2 2 2 2 2 3 3 3 3 3 4 4 5 5 5 5 5 5 6 6
7 5 5 5 5 4 4 4 0 6 6 5 5 4 3 2 2 2 2 2 1 1 1 1 2 2 2 2 2 2 3 2 3 3 3 3 3 3 4 4 4 5 5 5 5 6 6 7 7
8 8 8 5 6 5 4 4 2 4 4 4 3 3 2 2 2 2 1 1 1 0 1 1 2 2 2 2 2 3 3 3 3 3 3 3 4 4 4 4 5 6 6 6 6 7 7 7 8
Wind_Direction
261 248 238 242 240 233 243 243 248 88 61 49 28 346 349 357 24 98 139 72 82 106 123 139 140 142 146 147 143 137 134 137 138 142 147 147 144 142 143 141 135 133 131 128 125 125 124 121 122
264 246 238 236 241 238 236 223 223 75 66 57 12 274 292 32 73 103 106 74 86 107 123 137 141 145 148 151 150 148 144 142 143 150 153 155 158 157 157 152 146 144 137 131 129 127 131 129 129
262 250 239 231 233 240 262 65 78 68 63 60 298 338 343 27 55 82 99 99 90 100 123 136 141 151 154 156 159 160 157 153 154 159 161 167 171 172 170 162 155 153 149 145 140 139 138 136 136
243 224 242 244 251 255 275 30 75 77 138 183 292 309 99 57 57 78 94 103 100 106 114 137 146 156 162 164 165 170 168 165 168 172 173 180 183 178 174 169 164 161 159 160 157 154 152 148 149
242 236 233 241 248 255 269 359 28 264 237 223 257 284 61 62 73 78 85 83 98 100 111 138 149 158 167 172 175 174 176 177 181 183 184 186 187 185 180 176 173 172 171 172 173 169 168 169 173
231 236 240 240 242 235 221 206 262 266 262 275 279 267 150 121 91 81 83 71 79 90 108 136 154 161 171 178 181 179 184 187 191 191 191 193 194 195 197 191 186 184 184 187 188 186 187 190 194
248 253 254 264 270 260 233 62 281 290 289 317 338 304 144 96 84 77 70 42 56 85 108 135 160 166 174 183 185 185 192 195 197 199 200 200 203 206 207 205 199 197 195 198 199 200 203 207 209
270 275 258 255 259 261 60 27 346 335 319 349 335 298 78 76 57 56 57 38 33 73 135 152 170 173 178 188 192 192 195 198 201 204 205 204 206 211 212 211 207 204 204 206 207 211 213 215 217
266 254 254 258 269 294 59 333 318 317 289 284 272 283 316 53 43 58 84 177 175 194 181 168 178 182 182 184 192 193 197 200 203 206 206 204 208 209 209 209 209 205 205 210 213 218 218 218 219
215 242 251 283 322 335 336 316 315 285 273 268 254 238 118 29 284 240 239 225 200 205 213 193 184 185 185 184 176 189 197 198 202 207 203 203 209 209 209 198 202 205 207 210 214 219 218 217 215
214 240 269 290 326 334 321 306 296 279 269 274 282 302 322 286 262 245 244 232 214 198 201 203 199 189 175 174 178 188 194 197 203 206 206 202 202 201 201 180 186 195 201 206 211 212 216 216 211
241 247 261 277 309 304 292 289 286 272 271 289 299 300 296 279 267 252 258 261 218 193 197 207 203 185 181 181 185 193 193 203 205 206 208 199 192 194 189 184 184 187 194 197 199 205 215 218 214
238 249 259 270 271 272 274 268 270 268 271 273 276 278 267 263 266 265 262 276 232 191 199 205 209 191 182 191 194 195 204 210 209 202 204 203 193 192 188 192 189 195 197 193 200 214 219 220 219
262 265 264 261 257 254 258 263 255 255 252 252 249 247 246 247 251 259 247 243 236 210 211 202 215 202 182 185 196 204 209 215 214 200 201 204 196 193 189 195 203 204 201 201 205 217 219 222 222
272 275 268 249 241 237 260 264 241 242 238 242 241 237 236 237 238 240 231 228 236 226 213 199 210 202 193 199 204 204 213 214 210 206 204 210 203 197 195 198 207 211 207 205 208 219 220 227 229
243 247 250 232 221 213 221 261 252 227 227 239 240 233 227 227 224 220 208 204 237 224 215 185 202 202 203 204 211 206 208 213 212 208 202 207 211 205 201 202 207 213 213 206 207 210 220 230 230
219 235 244 245 207 201 219 261 265 242 237 243 240 233 224 218 214 196 187 170 198 224 212 179 170 195 199 208 210 211 206 217 220 215 211 206 209 211 207 204 210 209 209 214 219 215 212 230 233
217 234 244 241 210 220 239 260 269 260 251 247 241 228 216 212 204 175 168 157 165 191 198 168 160 189 192 202 218 220 226 230 228 218 221 218 209 209 210 208 213 213 211 217 219 224 220 224 228
266 273 271 270 272 248 256 267 269 260 250 248 240 226 208 202 190 153 153 147 155 160 176 185 178 191 177 182 206 215 232 237 242 235 234 231 219 209 206 216 219 217 217 220 222 227 229 232 220
249 262 269 280 287 285 275 273 268 254 242 234 229 221 204 188 189 164 164 151 156 167 167 225 203 204 188 199 209 215 221 222 223 234 239 233 227 217 218 213 215 216 218 228 229 223 229 235 210
242 246 257 271 296 274 279 275 249 241 229 214 212 212 195 180 167 150 156 149 140 129 60 299 248 232 202 194 200 226 218 220 220 239 240 241 244 228 221 222 217 219 218 226 232 222 222 233 228
248 243 256 271 274 269 252 286 264 241 216 198 196 198 199 179 158 152 145 118 108 85 43 333 266 245 226 200 196 200 211 217 228 225 238 245 241 240 227 232 231 229 227 230 237 235 228 225 232
241 289 267 263 260 270 245 256 268 222 218 203 190 183 180 164 152 154 142 119 92 71 47 348 338 291 243 223 216 213 225 229 227 224 237 244 242 240 233 226 231 235 240 239 238 242 237 229 232
221 276 273 258 252 254 227 224 267 228 212 180 167 159 152 142 133 126 114 109 90 64 29 354 347 327 304 252 243 231 233 238 243 246 242 242 241 243 243 242 236 236 237 243 246 243 241 237 238
189 186 223 218 214 239 212 218 243 203 153 152 160 152 141 137 132 129 123 115 111 86 17 345 339 319 315 308 289 269 252 252 249 250 246 254 250 247 245 263 250 245 243 245 250 250 246 241 241
199 202 209 223 230 246 215 233 241 143 122 121 135 138 134 137 132 128 131 129 120 115 347 342 334 313 310 304 295 293 274 254 253 256 248 247 246 242 242 252 265 257 251 254 252 253 252 249 243
193 215 234 272 288 275 241 238 223 166 145 143 138 137 147 143 135 132 118 114 90 26 349 328 327 317 320 318 310 300 289 273 271 266 256 249 249 251 245 249 262 263 252 250 251 252 252 251 246
237 207 181 206 228 245 242 232 221 182 175 162 158 157 155 150 153 148 135 116 90 44 7 331 330 315 306 316 316 314 297 281 277 277 272 269 263 263 261 260 260 267 260 255 254 257 257 257 253
197 215 214 215 228 229 250 249 220 161 163 162 160 152 152 151 148 141 126 114 103 54 3 335 329 324 320 325 321 320 311 296 283 276 276 280 279 269 262 261 262 266 263 256 253 255 256 257 259
211 210 204 213 230 229 253 272 13 118 126 126 129 131 133 134 131 121 111 93 75 23 336 336 336 336 315 315 320 319 317 310 296 287 282 281 281 276 272 270 268 266 269 265 257 261 262 260 262